Weather History for Columbus, OH

Change the Weather History Date:

Saturday, December 29, 2012

  Actual Average Record
Temperature  
Mean Temperature 30 °F 30 °F  
Max Temperature 32 °F 37 °F 67 °F (1889)
Min Temperature 27 °F 24 °F -10 °F (1880)
Degree Days  
Heating Degree Days 35 35  
Month to date heating degree days 705 907  
Since 1 July heating degree days 1822 1921  
Cooling Degree Days 0 0  
Month to date cooling degree days 0 0  
Year to date cooling degree days 1439 1024  
Moisture  
Dew Point 27 °F    
Average Humidity 89    
Maximum Humidity 100    
Minimum Humidity 78    
Precipitation  
Precipitation 0.45 in 0.09 in 1.13 in (1915)
Month to date precipitation 5.54 2.78  
Year to date precipitation 37.11 39.12  
Snow  
Snow 5.90 in 0.30 in 5.90 in (2012)
Month to date snowfall 13.2 4.6  
Since 1 July snowfall 14.0 5.7  
Snow Depth 6.00 in    
Sea Level Pressure  
Sea Level Pressure 29.84 in    
Wind  
Wind Speed 8 mph (NW)    
Max Wind Speed 22 mph    
Max Gust Speed 26 mph    
Visibility 2 miles    
Events Fog , Snow    
T = Trace of Precipitation, MM = Missing Value Source: NWS Daily Summary

Daily Weather History Graph

Daily Weather History Graph

Search for Another Location

Airport:

Trip Planner

Search our weather history database for the weather conditions in past years. The results will help you decide how hot, cold, wet, or windy it might be!

Date:

Astronomy

Dec. 29, 2012 Rise Set
Actual Time 7:52 AM EST 5:14 PM EST
Civil Twilight 7:22 AM EST 5:45 PM EST
Nautical Twilight 6:48 AM EST 6:19 PM EST
Astronomical Twilight 6:15 AM EST 6:52 PM EST
Moon 6:46 PM EST (12/29) 8:25 AM EST (12/29)
Length of Visible Light 10h 22m
Length of Day
9h 21m
Full, 98% of the Moon is Illuminated
Dec 29
Full
Jan 4
Last Quarter
Jan 11
New
Jan 18
First Quarter
Jan 26
Full

Hourly Weather History & Observations

Time (EST) Temp. Windchill Dew Point Humidity Pressure Visibility Wind Dir Wind Speed Gust Speed Precip Events Conditions
12:51 AM 30.0 °F 26.5 °F 27.0 °F 88% 29.87 in 7.0 mi East 3.5 mph - N/A   Overcast
1:43 AM 30.2 °F 24.3 °F 26.6 °F 86% 29.80 in 2.0 mi NE 5.8 mph - 0.00 in Snow Light Snow
1:51 AM 30.2 °F 24.3 °F 26.6 °F 86% 29.80 in 1.0 mi NE 5.8 mph - N/A Snow Light Snow
1:53 AM 30.2 °F 25.4 °F 26.6 °F 86% 29.79 in 0.5 mi NE 4.6 mph - 0.00 in Fog , Snow Snow
2:31 AM 30.2 °F 22.6 °F 28.4 °F 93% 29.77 in 2.0 mi ENE 8.1 mph - 0.02 in Snow Light Snow
2:41 AM 30.2 °F 25.4 °F 28.4 °F 93% 29.78 in 1.2 mi ENE 4.6 mph - 0.02 in Snow Light Snow
2:51 AM 30.0 °F 24.1 °F 28.0 °F 92% 29.80 in 1.0 mi ENE 5.8 mph - 0.03 in Snow Light Snow
3:16 AM 30.2 °F 24.3 °F 28.4 °F 93% 29.76 in 0.5 mi NNE 5.8 mph - 0.01 in Fog , Snow Snow
3:24 AM 30.2 °F 25.4 °F 28.4 °F 93% 29.75 in 0.2 mi NE 4.6 mph - 0.02 in Fog , Snow Heavy Snow
3:51 AM 30.0 °F 25.2 °F 28.0 °F 92% 29.76 in 0.2 mi NE 4.6 mph - 0.05 in Fog , Snow Heavy Snow
4:21 AM 30.2 °F 26.7 °F 28.4 °F 93% 29.71 in 0.8 mi NNE 3.5 mph - 0.04 in Snow Light Snow
4:38 AM 30.2 °F - 28.4 °F 93% 29.71 in 0.5 mi Calm Calm - 0.06 in Fog , Snow Snow
4:45 AM 30.2 °F - 28.4 °F 93% 29.71 in 0.2 mi Calm Calm - N/A Fog , Snow Heavy Snow
4:51 AM 30.0 °F - 28.0 °F 92% 29.73 in 0.2 mi Calm Calm - 0.09 in Fog , Snow Heavy Snow
5:12 AM 30.2 °F - 28.4 °F 93% 29.70 in 0.8 mi Calm Calm - 0.02 in Snow Light Snow
5:38 AM 28.4 °F 24.6 °F 28.4 °F 100% 29.70 in 1.0 mi North 3.5 mph - 0.03 in Snow Light Snow
5:51 AM 28.9 °F 22.8 °F 28.0 °F 96% 29.72 in 1.0 mi NNW 5.8 mph - 0.05 in Snow Light Snow
5:58 AM 28.4 °F 22.2 °F 28.4 °F 100% 29.70 in 1.0 mi NNW 5.8 mph - 0.00 in Snow Light Snow
6:14 AM 28.4 °F 22.2 °F 26.6 °F 93% 29.70 in 0.2 mi NNW 5.8 mph - 0.01 in Fog , Snow Heavy Snow
6:51 AM 28.0 °F 20.0 °F 27.0 °F 96% 29.73 in 0.5 mi NNW 8.1 mph - 0.07 in Fog , Snow Snow
7:24 AM 28.4 °F 19.7 °F 26.6 °F 93% 29.72 in 0.5 mi NNW 9.2 mph - 0.03 in Fog , Snow Snow
7:51 AM 28.9 °F 22.8 °F 27.0 °F 92% 29.75 in 0.5 mi NNW 5.8 mph - 0.06 in Fog , Snow Snow
8:01 AM 28.4 °F 21.2 °F 26.6 °F 93% 29.73 in 1.0 mi NNW 6.9 mph - 0.00 in Snow Light Snow
8:31 AM 28.4 °F 20.4 °F 26.6 °F 93% 29.73 in 0.8 mi NNW 8.1 mph - 0.00 in Snow Light Snow
8:51 AM 28.9 °F 21.1 °F 27.0 °F 92% 29.76 in 0.8 mi NNW 8.1 mph - 0.01 in Snow Light Snow
9:22 AM 28.4 °F 21.2 °F 26.6 °F 93% 29.75 in 0.8 mi NNW 6.9 mph - 0.02 in Snow Light Snow
9:35 AM 28.4 °F 20.4 °F 26.6 °F 93% 29.75 in 0.8 mi NW 8.1 mph - 0.02 in Snow Light Snow
9:51 AM 28.9 °F 21.9 °F 27.0 °F 92% 29.78 in 1.5 mi NW 6.9 mph - 0.02 in Snow Light Snow
10:44 AM 30.2 °F 21.3 °F 26.6 °F 86% 29.78 in 5.0 mi NW 10.4 mph - 0.00 in   Overcast
10:51 AM 30.0 °F 22.4 °F 26.1 °F 85% 29.81 in 5.0 mi NNW 8.1 mph - 0.00 in   Overcast
11:27 AM 30.2 °F 23.4 °F 26.6 °F 86% 29.78 in 5.0 mi NW 6.9 mph - N/A   Overcast
11:51 AM 30.9 °F 22.2 °F 26.1 °F 82% 29.82 in 6.0 mi WNW 10.4 mph - N/A   Haze
12:51 PM 30.9 °F 24.3 °F 27.0 °F 85% 29.82 in 5.0 mi WNW 6.9 mph - N/A   Overcast
1:51 PM 32.0 °F 25.6 °F 27.0 °F 82% 29.83 in 6.0 mi WNW 6.9 mph - N/A   Haze
2:51 PM 30.0 °F 21.7 °F 26.1 °F 85% 29.86 in 3.0 mi WNW 9.2 mph - N/A   Overcast
3:51 PM 30.0 °F 21.1 °F 26.1 °F 85% 29.90 in 4.0 mi WNW 10.4 mph - N/A   Overcast
4:51 PM 30.0 °F 22.4 °F 26.1 °F 85% 29.92 in 4.0 mi West 8.1 mph - 0.00 in Snow Light Snow
5:51 PM 30.0 °F 22.4 °F 26.1 °F 85% 29.95 in 3.0 mi WNW 8.1 mph - 0.00 in Snow Light Snow
6:16 PM 30.2 °F 22.6 °F 26.6 °F 86% 29.94 in 2.5 mi WNW 8.1 mph - 0.01 in Snow Light Snow
6:41 PM 30.2 °F 23.4 °F 26.6 °F 86% 29.95 in 2.5 mi WNW 6.9 mph - 0.01 in Snow Light Snow
6:51 PM 30.0 °F 22.4 °F 27.0 °F 88% 29.98 in 2.5 mi West 8.1 mph - 0.01 in Snow Light Snow
7:23 PM 30.2 °F 23.4 °F 26.6 °F 86% 29.96 in 2.5 mi West 6.9 mph - 0.00 in Snow Light Snow
7:51 PM 30.0 °F 22.4 °F 27.0 °F 88% 30.00 in 2.5 mi WNW 8.1 mph - 0.02 in Snow Light Snow
8:14 PM 30.2 °F 22.6 °F 26.6 °F 86% 29.98 in 2.0 mi West 8.1 mph - 0.00 in Snow Light Snow
8:51 PM 30.0 °F 21.7 °F 28.0 °F 92% 30.02 in 2.0 mi WNW 9.2 mph - 0.01 in Snow Light Snow
9:08 PM 30.2 °F 18.1 °F 26.6 °F 86% 30.00 in 2.0 mi West 18.4 mph 21.9 mph 0.00 in Snow Light Snow
9:22 PM 30.2 °F 18.1 °F 26.6 °F 86% 30.01 in 3.0 mi West 18.4 mph - 0.01 in Snow Light Snow
9:51 PM 28.9 °F 16.5 °F 25.0 °F 85% 30.05 in 3.0 mi WNW 18.4 mph 26.5 mph 0.01 in Snow Light Snow
10:42 PM 28.4 °F 17.5 °F 24.8 °F 86% 30.05 in 2.5 mi WNW 13.8 mph 24.2 mph 0.00 in Snow Light Snow
10:51 PM 28.0 °F 17.0 °F 24.1 °F 85% 30.09 in 2.5 mi West 13.8 mph 21.9 mph 0.00 in Snow Light Snow
11:20 PM 28.4 °F 15.4 °F 23.0 °F 80% 30.07 in 3.0 mi West 19.6 mph 26.5 mph 0.00 in Snow Light Snow
11:51 PM 27.0 °F 12.8 °F 23.0 °F 85% 30.12 in 5.0 mi West 21.9 mph - 0.01 in Snow Light Snow